This is the latest recevied weather packets stored in our database for station/object N4JTC. If no packets are shown the sender has not sent any weather packets the latest 10 day(s).
| Time | Temp. | Humidity | Pressure | Rain* | Wind** | Luminosity | Snow |
|---|---|---|---|---|---|---|---|
| 1778202903 | 25° C | 86% | 1013.9 hPa | 0 mm | - | 0 W/m² | - |
| 1778202603 | 25° C | 86% | 1013.7 hPa | 0 mm | - | 0 W/m² | - |
| 1778202303 | 25° C | 85% | 1013.8 hPa | 0 mm | - | 0 W/m² | - |
| 1778202002 | 25° C | 84% | 1013.6 hPa | 0 mm | - | 0 W/m² | - |
| 1778201703 | 25° C | 85% | 1013.8 hPa | 0 mm | - | 0 W/m² | - |
| 1778201403 | 24.44° C | 85% | 1013.8 hPa | 0 mm | - | 0 W/m² | - |
| 1778201103 | 24.44° C | 86% | 1014 hPa | 0 mm | - | 0 W/m² | - |
| 1778200803 | 24.44° C | 87% | 1013.6 hPa | 0 mm | - | 0 W/m² | - |
| 1778200502 | 25° C | 90% | 1013.5 hPa | 0 mm | - | 0 W/m² | - |
| 1778200203 | 25° C | 91% | 1013.8 hPa | 0 mm | - | 0 W/m² | - |
| 1778199903 | 25° C | 92% | 1013.6 hPa | 0 mm | - | 0 W/m² | - |
| 1778199603 | 25° C | 92% | 1013.5 hPa | 0 mm | - | 3 W/m² | - |
| 1778199303 | 25.56° C | 92% | 1013.5 hPa | 0 mm | - | 3 W/m² | - |
| 1778199004 | 25.56° C | 92% | 1013.6 hPa | 0 mm | - | 5 W/m² | - |
| 1778198702 | 25.56° C | 91% | 1013.5 hPa | 0 mm | - | 7 W/m² | - |
| 1778198403 | 25.56° C | 91% | 1013.5 hPa | 0 mm | - | 19 W/m² | - |
| 1778198103 | 25.56° C | 91% | 1013.6 hPa | 0 mm | - | 21 W/m² | - |
| 1778197803 | 25.56° C | 91% | 1013.5 hPa | 0 mm | - | 25 W/m² | - |
| 1778197503 | 25.56° C | 91% | 1013.6 hPa | 0 mm | - | 35 W/m² | - |
| 1778197203 | 25.56° C | 91% | 1013.4 hPa | 0 mm | - | 44 W/m² | - |
| 1778196903 | 25.56° C | 91% | 1013.5 hPa | 0 mm | - | 49 W/m² | - |
| 1778196603 | 25.56° C | 92% | 1013.6 hPa | 0 mm | - | 55 W/m² | - |
| 1778196303 | 25.56° C | 92% | 1013.4 hPa | 0 mm | - | 47 W/m² | - |
| 1778196003 | 25.56° C | 92% | 1013.2 hPa | 0 mm | - | 42 W/m² | - |
| 1778195703 | 25.56° C | 92% | 1013.3 hPa | 0 mm | - | 50 W/m² | - |
* Rain latest hour (hover to see other rain measurements)
** Current wind speed in m/s (hover to see current wind gust speed)